"1991/05/01","  * ","  * ","  * "
"1991/05/02","  * ","  * ","  * "
"1991/05/03","  * ","  * ","  * "
"1991/05/04",1019.1,1020.4,1017.4
"1991/05/05",1021.5,1023.6,1020.0
"1991/05/06",1023.6,1024.5,1022.3
"1991/05/07",1023.5,1025.0,1021.7
"1991/05/08",1018.3,1022.9,1014.4
"1991/05/09",1012.4,1014.7,1010.3
"1991/05/10",1015.3,1017.2,1013.6
"1991/05/11",1016.4,1018.0,1014.2
"1991/05/12",1015.8,1017.5,1013.8
"1991/05/13",1013.1,1016.4,1011.2
"1991/05/14",1017.0,1018.5,1015.5
"1991/05/15",1015.6,1018.0,1012.0
"1991/05/16",1002.8,1012.5, 996.7
"1991/05/17", 995.9,1000.1, 993.7
"1991/05/18",1004.0,1006.1, 999.8
"1991/05/19",1006.9,1012.5,1004.9
"1991/05/20",1016.0,1018.1,1012.2
"1991/05/21",1015.5,1018.1,1013.0
"1991/05/22",1008.4,1013.0,1005.3
"1991/05/23",1010.2,1014.5,1006.1
"1991/05/24",1014.8,1016.2,1013.6
"1991/05/25",1012.6,1014.5,1010.7
"1991/05/26",1007.8,1011.4,1004.5
"1991/05/27",1008.6,1014.2,1003.0
"1991/05/28",1017.0,1019.2,1013.8
"1991/05/29",1018.1,1019.5,1016.7
"1991/05/30",1015.1,1016.9,1014.0
"1991/05/31",1016.6,1017.6,1015.7
"1991/06/01",1013.6,1016.0,1011.5
"1991/06/02",1009.7,1011.8,1007.8
"1991/06/03",1005.8,1008.2,1001.6
"1991/06/04",1002.6,1009.4, 999.2
"1991/06/05",1010.4,1012.2,1009.0
"1991/06/06",1009.1,1010.5,1007.3
"1991/06/07",1013.1,1017.0,1009.4
"1991/06/08",1019.3,1021.7,1016.5
"1991/06/09",1021.2,1022.7,1019.6
"1991/06/10",1014.0,1019.8,1009.4
"1991/06/11",1009.1,1010.0,1007.2
"1991/06/12",1007.2,1009.2,1004.4
"1991/06/13",1003.5,1005.6,1000.8
"1991/06/14",1002.9,1005.7, 999.9
"1991/06/15",1004.9,1007.1,1001.8
"1991/06/16",1000.6,1005.2, 998.0
"1991/06/17",1005.1,1006.4,1003.7
"1991/06/18",1005.1,1005.8,1004.3
"1991/06/19",1004.2,1005.2,1002.9
"1991/06/20",1003.1,1004.9, 999.3
"1991/06/21",1006.3,1009.8,1002.5
"1991/06/22",1007.1,1009.7,1004.0
"1991/06/23",1003.1,1006.5,1000.9
"1991/06/24",1007.6,1010.6,1005.1
"1991/06/25",1009.9,1010.7,1009.2
"1991/06/26",1011.1,1012.5,1010.4
"1991/06/27",1007.8,1010.8,1005.6
"1991/06/28",1006.7,1007.6,1005.1
"1991/06/29",1007.1,1008.8,1005.4
"1991/06/30",1001.2,1005.6, 998.5
"1991/07/01",1003.7,1004.9,1001.3
"1991/07/02",1002.4,1008.7, 997.6
"1991/07/03",1007.6,1008.6,1006.6
"1991/07/04",1007.9,1009.6,1004.3
"1991/07/05", 999.2,1004.5, 996.4
"1991/07/06",1006.4,1009.6,1001.8
"1991/07/07",1008.3,1010.1,1004.6
"1991/07/08", 999.5,1005.1, 995.9
"1991/07/09",1008.1,1012.7,1002.3
"1991/07/10",1010.8,1012.6,1008.1
"1991/07/11",1006.0,1008.5,1004.3
"1991/07/12",1007.4,1010.2,1005.8
"1991/07/13",1007.8,1010.8,1006.3
"1991/07/14",1012.9,1015.3,1010.4
"1991/07/15",1015.3,1016.3,1014.3
"1991/07/16",1008.9,1014.9,1004.5
"1991/07/17",1004.8,1006.1,1003.5
"1991/07/18",1007.0,1011.0,1005.3
"1991/07/19",1013.0,1014.8,1010.9
"1991/07/20",1011.0,1014.3,1008.0
"1991/07/21",1007.3,1008.3,1005.9
"1991/07/22",1007.4,1008.6,1006.3
"1991/07/23",1008.0,1009.4,1006.6
"1991/07/24",1005.3,1007.2,1003.6
"1991/07/25",1003.5,1004.4,1002.5
"1991/07/26",1001.3,1004.2, 997.9
"1991/07/27",1003.7,1006.1,1000.4
"1991/07/28",1007.2,1009.1,1005.7
"1991/07/29",1008.5,1009.6,1006.8
"1991/07/30",1007.5,1009.0,1006.2
"1991/07/31",1008.1,1010.2,1006.9
"1991/08/01",1009.6,1010.5,1008.6
"1991/08/02",1007.9,1009.2,1006.3
"1991/08/03",1003.4,1007.3,1000.0
"1991/08/04",1003.4,1007.0,1000.5
"1991/08/05",1009.3,1010.1,1008.2
"1991/08/06",1008.6,1009.9,1005.8
"1991/08/07",1002.7,1006.2,1000.1
"1991/08/08",1000.9,1003.6, 999.4
"1991/08/09",1005.5,1008.7,1003.2
"1991/08/10",1008.0,1008.7,1007.1
"1991/08/11","  * ","  * ","  * "
"1991/08/12","  * ","  * ","  * "
"1991/08/13","  * ","  * ","  * "
"1991/08/14","  * ","  * ","  * "
"1991/08/15","  * ","  * ","  * "
"1991/08/16",1012.9,1013.6,1012.3
"1991/08/17",1012.7,1013.6,1011.5
"1991/08/18",1012.3,1013.1,1011.5
"1991/08/19",1010.9,1012.3,1009.7
"1991/08/20",1007.4,1010.3,1005.1
"1991/08/21",1003.8,1005.7,1002.3
"1991/08/22",1002.4,1003.8,1001.2
"1991/08/23",1001.4,1003.7, 999.4
"1991/08/24",1006.7,1009.2,1003.5
"1991/08/25",1008.6,1009.6,1007.1
"1991/08/26",1006.8,1008.6,1004.5
"1991/08/27",1012.7,1015.8,1008.2
"1991/08/28",1015.4,1016.7,1014.0
"1991/08/29",1011.4,1014.7,1008.9
"1991/08/30",1007.2,1009.3,1004.8
"1991/08/31",1001.2,1005.9, 995.3
"1991/09/01",1010.2,1013.3,1005.6
"1991/09/02",1012.4,1013.8,1010.8
"1991/09/03",1011.3,1012.3,1009.6
"1991/09/04",1013.6,1016.3,1011.2
"1991/09/05",1016.1,1017.7,1014.4
"1991/09/06",1012.4,1015.6,1009.6
"1991/09/07",1009.7,1010.8,1008.2
"1991/09/08",1008.0,1010.1,1006.6
"1991/09/09",1001.7,1006.9, 997.3
"1991/09/10",1008.9,1012.2,1003.5
"1991/09/11",1009.0,1012.0,1006.6
"1991/09/12",1010.2,1013.4,1007.5
"1991/09/13",1015.1,1017.4,1012.8
"1991/09/14",1011.7,1017.0,1005.2
"1991/09/15",1015.4,1021.1,1005.5
"1991/09/16",1019.5,1020.9,1017.7
"1991/09/17",1015.7,1018.0,1013.9
"1991/09/18",1011.1,1014.4,1006.7
"1991/09/19", 993.7,1006.9, 987.6
"1991/09/20",1003.9,1013.5, 990.6
"1991/09/21",1015.1,1016.5,1013.2
"1991/09/22",1015.2,1016.5,1014.2
"1991/09/23",1014.0,1015.0,1012.8
"1991/09/24",1014.7,1016.0,1013.4
"1991/09/25",1016.7,1019.2,1014.8
"1991/09/26",1020.8,1021.2,1019.9
"1991/09/27",1013.7,1020.1,1002.7
"1991/09/28",1002.7,1012.1, 996.0
"1991/09/29",1017.5,1020.0,1012.0
"1991/09/30",1020.1,1021.5,1019.2
"1991/10/01",1014.1,1020.5,1007.8
"1991/10/02",1009.0,1011.8,1007.0
"1991/10/03",1010.9,1012.3,1009.9
"1991/10/04",1009.3,1010.9,1007.9
"1991/10/05",1012.4,1016.6,1008.3
"1991/10/06",1015.8,1017.8,1013.5
"1991/10/07",1011.7,1013.8,1009.8
"1991/10/08",1012.5,1015.0,1010.1
"1991/10/09",1013.8,1016.0,1009.9
"1991/10/10",1009.3,1010.4,1008.4
"1991/10/11",1004.4,1008.5, 999.2
"1991/10/12", 995.8, 999.6, 991.3
"1991/10/13", 990.9, 998.1, 988.1
"1991/10/14",1005.0,1008.1, 997.8
"1991/10/15",1010.0,1016.1,1006.9
"1991/10/16",1019.3,1021.1,1016.0
"1991/10/17",1014.9,1019.3,1008.3
"1991/10/18",1009.9,1011.1,1007.7
"1991/10/19",1008.8,1010.8,1007.1
"1991/10/20",1014.3,1017.6,1010.5
"1991/10/21",1019.6,1022.6,1017.1
"1991/10/22",1018.8,1019.1,1018.5
"1991/10/23",1020.9,1023.3,1018.5
"1991/10/24",1022.6,1023.9,1021.3
"1991/10/25",1017.9,1021.6,1014.7
"1991/10/26",1023.2,1024.6,1020.8
"1991/10/27",1013.4,1022.7,1007.0
"1991/10/28",1009.6,1012.2,1007.1
"1991/10/29",1014.0,1015.4,1011.7
"1991/10/30",1010.9,1014.7,1008.5
"1991/10/31",1013.5,1016.9,1008.9
"1991/11/01",1015.2,1016.6,1013.3
"1991/11/02",1016.8,1019.0,1014.8
"1991/11/03",1017.8,1020.1,1015.9
"1991/11/04",1016.8,1022.7,1014.1
"1991/11/05",1026.9,1030.3,1022.3
"1991/11/06",1030.3,1031.9,1029.1
"1991/11/07",1026.4,1029.7,1022.8
"1991/11/08",1006.0,1006.5,1004.1
"1991/11/09","  * ","  * ","  * "
"1991/11/10","  * ","  * ","  * "
"1991/11/11","  * ","  * ","  * "
"1991/11/12","  * ","  * ","  * "
"1991/11/13",1016.5,1017.9,1015.1
"1991/11/14",1018.1,1019.5,1016.8
"1991/11/15",1021.6,1025.1,1019.1
"1991/11/16","  * ","  * ","  * "
"1991/11/17","  * ","  * ","  * "
"1991/11/18",1018.9,1020.8,1018.1
"1991/11/19",1015.4,1019.0,1010.3
"1991/11/20",1011.9,1020.1,1008.1
"1991/11/21",1025.4,1028.4,1019.8
"1991/11/22",1026.6,1028.6,1024.3
"1991/11/23",1020.4,1024.6,1014.7
"1991/11/24",1017.2,1024.5,1012.3
"1991/11/25",1030.5,1034.9,1024.4
"1991/11/26",1033.6,1036.1,1031.6
"1991/11/27",1028.4,1031.8,1023.9
"1991/11/28",1014.2,1024.2, 999.4
"1991/11/29","  * ","  * ","  * "
"1991/11/30",1018.0,1019.8,1016.7
"1991/12/01",1014.8,1017.1,1012.8
"1991/12/02",1018.5,1019.8,1016.2
"1991/12/03",1018.3,1020.2,1016.5
"1991/12/04",1021.0,1025.1,1016.8
"1991/12/05",1026.9,1028.6,1024.8
"1991/12/06",1023.7,1025.2,1023.2
"1991/12/07",1021.4,1023.4,1019.3
"1991/12/08",1017.4,1021.6,1013.0
"1991/12/09",1019.5,1025.3,1014.2
"1991/12/10",1026.8,1028.8,1024.8
"1991/12/11",1012.2,1025.0,1002.6
"1991/12/12",1014.2,1021.6,1005.3
"1991/12/13",1024.8,1026.8,1021.2
"1991/12/14",1028.1,1029.9,1026.3
"1991/12/15",1029.7,1031.3,1028.5
"1991/12/16",1030.8,1032.8,1029.2
"1991/12/17",1023.3,1029.5,1015.0
"1991/12/18",1009.0,1015.1,1004.9
"1991/12/19",1016.5,1020.4,1012.3
"1991/12/20",1026.3,1029.0,1020.1
"1991/12/21",1026.2,1028.9,1024.0
"1991/12/22",1027.3,1030.5,1024.6
"1991/12/23",1026.9,1030.4,1021.6
"1991/12/24",1017.4,1019.5,1016.3
"1991/12/25",1017.8,1019.2,1016.3
"1991/12/26",1016.6,1018.8,1014.4
"1991/12/27",1016.2,1019.9,1007.1
"1991/12/28", 996.1,1007.3, 988.7
"1991/12/29",1000.4,1007.9, 993.5
"1991/12/30",1015.2,1022.4,1007.6
"1991/12/31",1023.9,1025.9,1022.1
